Hourly Data Report for October 17, 2014

All times are specified in Local Standard Time (LST). Add 1 hour to adjust for Daylight Saving Time where and when it is observed.

KAMLOOPS A
BRITISH COLUMBIA

50°42'09.000" N
120°26'55.000" W
345.30 m
1163781
71887
YKA

Download Data

Hourly Data (October 2014)
Hourly Data Report for October 17, 2014
Temp Definition
°C
Dew Point Temp Definition
°C
Rel Hum Definition
%
Wind Dir Definition
10's deg

Wind Spd Definition
km/h
Visibility Definition
km
Stn Press Definition
kPa
Hmdx Definition


Wind Chill Definition


Weather Definition


TIME
00:00 Legend Double Dagger 9.0 3.4 68 7 12 64.4 97.33     LegendNANA
01:00 Legend Double Dagger 7.9 3.2 72 6 13 64.4 97.33     Mainly Clear
02:00 Legend Double Dagger 6.6 2.7 76 8 14 64.4 97.28     LegendNANA
03:00 Legend Double Dagger 7.9 3.4 73 6 14 64.4 97.23     LegendNANA
04:00 Legend Double Dagger 8.5 3.8 72 9 15 64.4 97.15     Mostly Cloudy
05:00 Legend Double Dagger 8.8 3.5 69 8 7 64.4 97.11     LegendNANA
06:00 Legend Double Dagger 10.3 3.8 64 7 14 64.4 97.08     LegendNANA
07:00 Legend Double Dagger 10.5 3.8 63 8 13 64.4 97.06     Mostly Cloudy
08:00 Legend Double Dagger 10.9 4.4 64 8 15 64.4 97.04     LegendNANA
09:00 Legend Double Dagger 11.2 4.7 64 10 17 64.4 97.04     LegendNANA
10:00 Legend Double Dagger 12.7 4.0 55 11 26 64.4 96.99     Cloudy
11:00 Legend Double Dagger 12.8 4.8 58 9 19 64.4 96.94     LegendNANA
12:00 Legend Double Dagger 13.1 4.6 56 11 24 64.4 96.88     LegendNANA
13:00 Legend Double Dagger 13.2 5.2 58 11 23 64.4 96.81     Mostly Cloudy
14:00 Legend Double Dagger 14.5 5.1 53 10 20 64.4 96.74     LegendNANA
15:00 Legend Double Dagger 15.1 4.8 50 10 26 64.4 96.65     LegendNANA
16:00 Legend Double Dagger 14.5 4.6 51 10 27 64.4 96.62     Cloudy
17:00 Legend Double Dagger 13.9 5.1 55 10 25 64.4 96.62     LegendNANA
18:00 Legend Double Dagger 13.6 4.8 55 9 21 64.4 96.64     LegendNANA
19:00 Legend Double Dagger 13.6 5.1 56 8 23 64.4 96.68     Cloudy
20:00 Legend Double Dagger 13.6 5.3 57 8 21 64.4 96.70     LegendNANA
21:00 Legend Double Dagger 12.6 5.8 63 8 18 64.4 96.69     LegendNANA
22:00 Legend Double Dagger 11.7 6.2 69 9 21 64.4 96.72     Cloudy
23:00 Legend Double Dagger 11.2 6.6 73 6 18 64.4 96.72     LegendNANA

Notes on Data Quality.

Legend

  • E = Estimated
  • M = Missing
  • NA = Not Available
  • ‡ = Partner data that is not subject to review by the National Climate Archives
Date modified: